STARLINK-34043, 63823

Orbit data source: Space-Track

STARLINK-34043, 63823 is a payload satellite owned by SpaceX/Seattle (US) in LEO that was launched on Sun, 04 May 2025 UTC via an FALCON 9 launch vehicle from the Air Force Eastern Test Range (AFETR). Payload-class satellites include a variety of spacecraft equipped with specific instruments for various scientific and technological missions. These include communications satellites like Starlink; space stations such as the ISS; scientific satellites like the Hubble; Earth observation satellites from companies like Planet Labs, Umbra, and HawkEye 360; GPS; miniature CubeSats for education and research; and military/defense satellites.

Loading next visibility...
Identifier
63823, 2025-092V
Orbit
LEO
Country
Flag of USUS
Related business
Manufacturer
SpaceX/Seattle
Mission
Operational Commercial Communications
Bus & Motor
STARLINK V2MO, Unknown motor
Mass
575 kg wet, ~530 kg dry
Launch date (UTC)
2025-05-04 (1 year ago)
Launch vehicle
FALCON 9
Launch site
Air Force Eastern Test Range (AFETR)
Object type
Payload
Rocket body
Debris
Shape & HBR
Box + 1 Pan, 17.7 m
Radar Cross Section
41.120 m², Large (>1 m²)

Expand to show TLE details & history
Last TLE update: 2 days ago

TLE from 2 days ago
0 STARLINK-34043
1 63823U 25092V   26252.57310247  .00009010  00000-0  33674-3 0  9992
2 63823  42.9988 210.0187 0000873 349.0888  10.9945 15.27558403 76787
Epoch: 2026-09-09T13:45Z
TLE epoch observation values (Epoch: 2026-09-09T13:45:16.053Z)
Latitude
0.00002°
Longitude
15.0786°
Altitude
482.301 km
Speed
7.626 km/s
True Right ascension
14h 00m 04s
True Declination
0° 00' 00"
Sunlit
Object was in daylight at epoch
Visualization orbit readout
Latitude
Unknown
Longitude
Unknown
Altitude
Unknown
Speed
Unknown
Apparent Right ascension
Unknown
Apparent Declination
Unknown
Sunlit
N/A
Visualization observer readout
Local Sidereal Time
18:41:56
Azimuth
Unknown
Elevation
Unknown
Doppler factor
Unknown
Orbital elements
Apogee altitude
485.658 km
Perigee altitude
484.46 km
Semi-major axis
6,863.196 km
Eccentricity
0.00009
Inclination
42.9988°
RAAN
210.0187°
Arg. of periapsis
349.0888°
True anomaly
10.99641°
Mean anomaly
10.9945°
Eccentric anomaly
10.99545°
Mean motion
3.81728 °/min
Orbital period
94.31 mins
BSTAR
0.00033674
Loading maneuver chart data...
Computing Atmospheric mass density...
Loading historical data...
Loading historical data...
Loading historical data...
Loading historical data...
Loading historical data...
Loading historical data...
Loading historical data...

Documentation

Showing up to 5 results
|